[[{"header":{"parameterUnit":"m.s-1","parameterCategory":1,"la1":30.2991,"la2":30.254,"lo1":-89.0895,"lo2":-89.0444,"dy":0.0017,"dx":0.0017,"nx":28,"ny":28,"refTime":"2023-09-15T03:00:00:Z","depth":0,"parameterNumber":2,"parameterNumberName":"U-component_of_WINDS"},"data":[0,0,0,0,0,0,0,0,0,0,0,0,0,0,0,0,0,0,0,0,0,0,0,0,0,0,0,0,0,0,0,0,0,0,0,0,0,0,0,0,0,0,0,0,0,0,0,0,0,0,0,0,0,0,0,0,0,0,2.2105,2.2106,0,2.2163,2.2163,2.2164,2.2182,2.2181,2.2181,2.2181,2.2238,2.224,2.2242,0,0,0,0,0,0,0,0,0,0,0,0,0,2.2009,2.2011,2.2105,2.2106,2.2106,2.2163,2.2163,2.2164,2.2182,2.2181,2.2181,2.2181,2.2238,2.224,2.2242,0,0,0,0,0,0,0,0,0,0,0,0,0,2.2057,2.2011,2.2105,2.2122,2.2124,2.2163,2.2164,2.2164,2.2182,2.2181,2.2181,2.2181,2.2237,2.224,2.2242,2.2267,0,0,2.225,2.2252,0,0,0,0,0,0,0,0,2.2054,2.206,2.2119,2.2121,2.2123,2.2165,2.2151,2.2199,2.2182,2.216,2.2181,2.218,2.2214,2.2219,2.223,2.227,2.2272,2.2251,2.2252,2.2253,2.2254,0,0,0,0,0,0,0,2.2051,2.2058,2.2128,2.212,2.2122,2.2126,2.2133,2.216,2.2188,2.2162,2.2163,2.217,2.2215,2.2228,2.2232,2.2273,2.2251,2.2253,2.2255,2.2256,2.2337,2.2338,0,0,0,0,0,0,2.2045,2.2055,2.2126,2.213,2.2087,2.2129,2.2136,2.2152,2.2188,2.2193,2.217,2.217,2.2223,2.2229,2.2234,2.2266,2.2253,2.2256,2.2257,2.2337,2.2337,2.2338,0,0,0,0,0,0,2.2043,2.2051,2.2124,2.2093,2.2102,2.2131,2.2149,2.2153,2.2166,2.2195,2.22,2.2178,2.2223,2.223,2.2259,2.2268,2.2257,2.226,2.2336,2.2337,2.2338,2.233,0,0,0,0,0,0,2.204,2.205,2.206,2.2093,2.2104,2.2148,2.2149,2.2155,2.217,2.2171,2.2203,2.2208,2.2223,2.2255,2.2262,2.2272,2.2262,2.2335,2.2336,2.2337,2.2329,2.233,2.2331,0,0,0,0,0,2.2036,2.2055,2.206,2.2069,2.2117,2.2149,2.2155,2.2173,2.2171,2.2181,2.22,2.2207,2.2266,2.2258,2.2266,2.2276,2.2335,2.2336,2.2337,2.2329,2.233,2.2331,0,0,0,0,0,0,2.2021,2.2059,2.2066,2.2096,2.2119,2.2152,2.2165,2.2173,2.2197,2.2197,2.2217,2.2224,2.2252,2.2267,2.2257,2.2303,2.2301,2.2304,2.2292,2.2293,2.2294,2.2289,2.2264,0,0,0,0,0,2.2022,2.2045,2.2077,2.21,2.2111,2.2136,2.215,2.2162,2.2187,2.2197,2.2217,2.2241,2.2265,2.228,2.2303,2.2332,2.2339,2.2343,2.2344,2.2345,2.2347,2.2364,2.2366,2.2342,2.2342,2.2342,0,0,2.2022,2.2046,2.2059,2.2097,2.2117,2.214,2.2144,2.2168,2.2185,2.22,2.2229,2.2245,2.2273,2.2302,2.2316,2.2315,2.2355,2.2346,2.2347,2.2348,2.2365,2.2367,2.2369,2.2343,2.2343,2.2343,0,0,2.2035,2.2055,2.2077,2.2097,2.2126,2.2143,2.2148,2.218,2.2192,2.2221,2.2233,2.2254,2.2295,2.2314,2.2329,2.235,2.2358,2.2358,2.2362,2.2378,2.238,2.2381,2.2389,2.2392,2.236,2.236,2.236,0,2.2031,2.2067,2.2087,2.2111,2.2128,2.2143,2.2165,2.2183,2.2219,2.223,2.2229,2.2282,2.2301,2.2335,2.234,2.2352,2.2359,2.2354,2.2378,2.238,2.2382,2.2389,2.2392,2.2359,2.2359,2.2359,2.2359,0,2.2061,2.2086,2.21,2.2135,2.2154,2.2176,2.22,2.2216,2.2227,2.2243,2.2274,2.2298,2.2327,2.2336,2.2346,2.2372,2.2371,2.2374,2.2372,2.2383,2.2391,2.2394,2.2359,2.2359,2.2359,2.2359,0,0,2.2065,2.2112,2.2117,2.2133,2.2168,2.2187,2.2211,2.224,2.2254,2.2278,2.2298,2.2333,2.2337,2.2354,2.2366,2.2381,2.2397,2.2382,2.2383,2.2384,2.2426,2.2424,2.2427,2.2402,2.2403,2.2403,2.2424,0,2.2082,2.2126,2.2145,2.218,2.2203,2.2219,2.224,2.2263,2.228,2.2301,2.232,2.2344,2.2347,2.2357,2.2372,2.2391,2.2405,2.239,2.2421,2.2422,2.2413,2.2431,2.2428,2.2446,2.2427,2.2428,2.2428,0,2.2107,2.2132,2.217,2.2203,2.2213,2.2232,2.226,2.2281,2.2308,2.2319,2.2339,2.2352,2.2377,2.2375,2.241,2.24,2.2413,2.2425,2.2426,2.2429,2.2425,2.2434,2.2453,2.2455,2.2433,2.2432,2.2432,0,2.2106,2.2149,2.2178,2.2191,2.223,2.2243,2.226,2.2286,2.2303,2.2328,2.2339,2.2367,2.2382,2.2403,2.2422,2.2419,2.2456,2.2455,2.2466,2.2465,2.2472,2.2472,2.2493,2.2482,2.2482,2.2482,2.2482,0,2.2122,2.2144,2.2178,2.2195,2.2221,2.2243,2.2267,2.2285,2.2309,2.233,2.2345,2.2365,2.239,2.2412,2.2428,2.2455,2.2461,2.2471,2.2475,2.2469,2.2468,2.2478,2.2477,2.2483,2.2483,2.2482,2.2482,0,2.2124,2.2148,2.218,2.2215,2.2224,2.2241,2.2271,2.2288,2.2306,2.2332,2.234,2.2368,2.2395,2.2417,2.2452,2.2463,2.2491,2.2496,2.2482,2.2484,2.2494,2.2493,2.2523,2.2528,2.2513,2.2513,2.2513,0,2.2133,2.2151,2.2188,2.2204,2.2221,2.2245,2.2263,2.2286,2.2303,2.2336,2.235,2.2378,2.2402,2.2445,2.2468,2.2496,2.2501,2.2509,2.2505,2.2499,2.2501,2.2499,2.2501,2.2509,2.2509,2.2509,2.2509,0,2.2146,2.2157,2.2182,2.2212,2.2233,2.2257,2.2281,2.2293,2.232,2.2339,2.2367,2.2386,2.2423,2.2451,2.2481,2.2498,2.2508,2.2511,2.2515,2.2509,2.2501,2.2505,2.2483,2.251,2.251,2.251,2.251,2.251,2.2152,2.2169,2.2198,2.2226,2.2247,2.2269,2.2288,2.2308,2.2333,2.2365,2.2377,2.2407,2.2434,2.2476,2.2493,2.2516,2.2517,2.2522,2.2524,2.2525,2.2524,2.2498,2.2522,2.2522,2.2522,2.2522,2.2522,0,2.2166,2.2186,2.2211,2.2245,2.2267,2.2276,2.2304,2.2321,2.2347,2.2372,2.2396,2.2429,2.2457,2.2483,2.2512,2.2525,2.2531,2.2532,2.2531,2.2535,2.2522,2.2515,2.2527,2.2527,2.2527,2.2527,2.2527,2.2527,2.2176,2.2205,2.2219,2.2259,2.2279,2.2308,2.2323,2.2344,2.2365,2.2401,2.2425,2.2442,2.2467,2.2499,2.2524,2.2531,2.2541,2.2541,2.2549,2.2536,2.2536,2.2535,2.2529,2.2543,2.2543,2.256,2.256,2.2561]},{"header":{"parameterUnit":"m.s-1","parameterCategory":1,"la1":30.2991,"la2":30.254,"lo1":-89.0895,"lo2":-89.0444,"dy":0.0017,"dx":0.0017,"nx":28,"ny":28,"refTime":"2023-09-15T03:00:00:Z","depth":0,"parameterNumber":3,"parameterNumberName":"V-component_of_WINDS"},"data":[0,0,0,0,0,0,0,0,0,0,0,0,0,0,0,0,0,0,0,0,0,0,0,0,0,0,0,0,0,0,0,0,0,0,0,0,0,0,0,0,0,0,0,0,0,0,0,0,0,0,0,0,0,0,0,0,0,0,0.4353,0.4353,0,0.4365,0.4366,0.4366,0.4403,0.4403,0.4404,0.4405,0.4416,0.4415,0.4415,0,0,0,0,0,0,0,0,0,0,0,0,0,0.4357,0.4357,0.4353,0.4353,0.4353,0.4365,0.4366,0.4366,0.4402,0.4403,0.4404,0.4405,0.4416,0.4415,0.4415,0,0,0,0,0,0,0,0,0,0,0,0,0,0.4361,0.4357,0.4353,0.4373,0.4375,0.4365,0.4366,0.4366,0.4402,0.4403,0.4405,0.4406,0.4416,0.4415,0.4415,0.4386,0,0,0.4412,0.4412,0,0,0,0,0,0,0,0,0.4361,0.4361,0.437,0.4372,0.4374,0.4384,0.4371,0.4373,0.4402,0.4392,0.4405,0.4406,0.4404,0.4404,0.4404,0.4386,0.4387,0.4412,0.4412,0.4412,0.4411,0,0,0,0,0,0,0,0.436,0.436,0.4358,0.437,0.4372,0.438,0.4382,0.4372,0.4391,0.4393,0.4395,0.4397,0.4405,0.4404,0.4404,0.4387,0.4412,0.4412,0.4411,0.4411,0.4344,0.4342,0,0,0,0,0,0,0.4358,0.436,0.4357,0.4358,0.437,0.4379,0.4381,0.4379,0.4391,0.4394,0.4395,0.4398,0.4405,0.4405,0.4405,0.437,0.4412,0.4411,0.4411,0.4345,0.4343,0.4342,0,0,0,0,0,0,0.4358,0.4357,0.4357,0.436,0.436,0.4378,0.4375,0.4379,0.4378,0.4393,0.4396,0.4391,0.4406,0.4406,0.439,0.4371,0.4411,0.441,0.4347,0.4344,0.4343,0.4301,0,0,0,0,0,0,0.4358,0.4357,0.4347,0.4359,0.436,0.4343,0.4374,0.4378,0.4377,0.4381,0.439,0.4393,0.4407,0.4391,0.4389,0.4371,0.4409,0.4348,0.4346,0.4343,0.4304,0.4298,0.4293,0,0,0,0,0,0.4358,0.4335,0.4346,0.4346,0.4348,0.4342,0.4342,0.4359,0.4376,0.4365,0.4374,0.4393,0.4374,0.4389,0.4387,0.4368,0.435,0.4346,0.4343,0.4307,0.4299,0.4293,0,0,0,0,0,0,0.432,0.4337,0.435,0.4331,0.4334,0.4348,0.4335,0.4351,0.4349,0.4353,0.4374,0.4375,0.4356,0.4361,0.4377,0.434,0.4364,0.4361,0.4337,0.433,0.4324,0.4323,0.4409,0,0,0,0,0,0.4309,0.4303,0.4319,0.43,0.4301,0.4318,0.4315,0.4328,0.4333,0.4334,0.4342,0.4345,0.4339,0.4335,0.4331,0.4305,0.4307,0.4292,0.4286,0.4281,0.4277,0.4261,0.4254,0.4332,0.4332,0.4332,0,0,0.4288,0.4296,0.4291,0.4293,0.4297,0.4289,0.4319,0.4309,0.4303,0.4333,0.4317,0.4323,0.4327,0.4306,0.4297,0.4309,0.4256,0.4277,0.4273,0.4272,0.4257,0.425,0.4243,0.433,0.433,0.433,0,0,0.4243,0.425,0.4235,0.4238,0.4244,0.4255,0.4251,0.4262,0.4266,0.4252,0.4273,0.4265,0.4256,0.4257,0.4256,0.421,0.4226,0.4208,0.4177,0.4161,0.4155,0.415,0.4131,0.4124,0.4205,0.4205,0.4205,0,0.4215,0.4205,0.4224,0.4213,0.4212,0.4238,0.4221,0.4224,0.4228,0.4226,0.424,0.4227,0.4232,0.421,0.4198,0.4198,0.4192,0.4207,0.4155,0.415,0.4145,0.4127,0.412,0.4202,0.4203,0.4203,0.4203,0,0.4168,0.416,0.4147,0.415,0.4148,0.4133,0.4149,0.4144,0.4157,0.4166,0.4149,0.4156,0.4152,0.4148,0.4161,0.4127,0.4134,0.4151,0.4176,0.4135,0.4118,0.4112,0.4199,0.42,0.4201,0.4201,0,0,0.4101,0.4114,0.4109,0.4109,0.4117,0.411,0.4097,0.4093,0.4087,0.4089,0.4076,0.4067,0.4082,0.4081,0.4094,0.4081,0.404,0.4099,0.41,0.4086,0.4,0.3986,0.3978,0.4051,0.405,0.4049,0.3999,0,0.4057,0.4035,0.4051,0.4025,0.4017,0.4041,0.4029,0.4031,0.4038,0.4031,0.4039,0.4031,0.4054,0.4053,0.4041,0.4048,0.4023,0.4052,0.4038,0.4037,0.4034,0.397,0.3955,0.3907,0.3993,0.3992,0.3991,0,0.4003,0.4002,0.3975,0.3982,0.3979,0.3968,0.3965,0.3959,0.3961,0.3967,0.3965,0.3981,0.3966,0.3991,0.3969,0.3989,0.3984,0.3986,0.3985,0.3983,0.401,0.3964,0.3893,0.3885,0.3982,0.3983,0.3983,0,0.3954,0.3945,0.3928,0.3928,0.3937,0.3927,0.393,0.3934,0.393,0.3928,0.3925,0.392,0.3917,0.3913,0.3925,0.3943,0.3901,0.3928,0.3904,0.3903,0.3893,0.3893,0.3818,0.3893,0.3893,0.3893,0.3893,0,0.3902,0.3884,0.3905,0.3894,0.3874,0.3892,0.3871,0.3877,0.388,0.3869,0.389,0.3879,0.3898,0.3888,0.3898,0.3877,0.3876,0.3879,0.3881,0.3876,0.3875,0.3872,0.3875,0.3891,0.3891,0.3892,0.3892,0,0.3843,0.3857,0.3838,0.3848,0.385,0.3834,0.3842,0.3831,0.3839,0.3825,0.3822,0.3835,0.3825,0.3838,0.3828,0.3835,0.3805,0.3814,0.3805,0.3806,0.378,0.3782,0.3699,0.3688,0.3772,0.3771,0.377,0,0.3808,0.3795,0.3803,0.3797,0.3799,0.379,0.3786,0.3803,0.3797,0.3798,0.3786,0.3778,0.3771,0.3753,0.3761,0.3753,0.376,0.3732,0.3759,0.3753,0.3757,0.3756,0.3754,0.3725,0.3724,0.3724,0.3723,0,0.3744,0.3751,0.3745,0.3741,0.3735,0.3732,0.3731,0.3725,0.3742,0.3735,0.3725,0.372,0.371,0.37,0.3694,0.3696,0.3711,0.3714,0.3708,0.3701,0.3695,0.3695,0.3787,0.3716,0.3717,0.3717,0.3717,0.3718,0.3695,0.3683,0.3686,0.3678,0.3679,0.3676,0.3666,0.3672,0.3664,0.3658,0.3668,0.3654,0.3655,0.3648,0.3648,0.3636,0.3648,0.3639,0.3637,0.3634,0.3629,0.3698,0.3635,0.3636,0.3636,0.3636,0.3636,0,0.363,0.3633,0.3625,0.3622,0.3615,0.3631,0.363,0.3622,0.361,0.361,0.3603,0.3589,0.3579,0.3586,0.3577,0.3566,0.3572,0.3563,0.3563,0.3562,0.362,0.3625,0.3557,0.3557,0.3557,0.3557,0.3557,0.3557,0.3595,0.3576,0.3582,0.3562,0.3565,0.3552,0.3549,0.3546,0.3546,0.353,0.3522,0.3526,0.3528,0.3519,0.351,0.3512,0.3506,0.3493,0.3497,0.3551,0.3559,0.3566,0.3571,0.3493,0.3492,0.344,0.344,0.344]}]]